Year,Month,Day,Hour,Minute,Value (Times are PST for temperature in C)
2016,06,22,00,00,13.80
2016,06,22,00,01,13.70
2016,06,22,00,02,13.70
2016,06,22,00,03,13.70
2016,06,22,00,04,13.70
2016,06,22,00,05,13.70
2016,06,22,00,06,13.70
2016,06,22,00,07,13.70
2016,06,22,00,08,13.70
2016,06,22,00,09,13.70
2016,06,22,00,10,13.70
2016,06,22,00,11,13.60
2016,06,22,00,12,13.60
2016,06,22,00,13,13.60
2016,06,22,00,14,13.60
2016,06,22,00,15,13.60
2016,06,22,00,16,13.60
2016,06,22,00,17,13.60
2016,06,22,00,18,13.50
2016,06,22,00,19,13.50
2016,06,22,00,20,13.50
2016,06,22,00,21,13.50
2016,06,22,00,22,13.50
2016,06,22,00,23,13.50
2016,06,22,00,24,13.50
2016,06,22,00,25,13.50
2016,06,22,00,26,13.50
2016,06,22,00,27,13.40
2016,06,22,00,28,13.40
2016,06,22,00,29,13.40
2016,06,22,00,30,13.40
2016,06,22,00,31,13.40
2016,06,22,00,32,13.40
2016,06,22,00,33,13.30
2016,06,22,00,34,13.30
2016,06,22,00,35,13.30
2016,06,22,00,36,13.30
2016,06,22,00,37,13.30
2016,06,22,00,38,13.30
2016,06,22,00,39,13.30
2016,06,22,00,40,13.20
2016,06,22,00,41,13.20
2016,06,22,00,42,13.20
2016,06,22,00,43,13.20
2016,06,22,00,44,13.20
2016,06,22,00,45,13.10
2016,06,22,00,46,13.10
2016,06,22,00,47,13.10
2016,06,22,00,48,13.10
2016,06,22,00,49,13.10
2016,06,22,00,50,13.00
2016,06,22,00,51,13.00
2016,06,22,00,52,13.00
2016,06,22,00,53,13.00
2016,06,22,00,54,13.00
2016,06,22,00,55,12.90
2016,06,22,00,56,12.90
2016,06,22,00,57,12.90
2016,06,22,00,58,12.90
2016,06,22,00,59,12.90
2016,06,22,01,00,12.80
2016,06,22,01,01,12.80
2016,06,22,01,02,12.80
2016,06,22,01,03,12.80
2016,06,22,01,04,12.80
2016,06,22,01,05,12.80
2016,06,22,01,06,12.80
2016,06,22,01,07,12.80
2016,06,22,01,08,12.80
2016,06,22,01,09,12.80
2016,06,22,01,10,12.70
2016,06,22,01,11,12.70
2016,06,22,01,12,12.70
2016,06,22,01,13,12.70
2016,06,22,01,14,12.70
2016,06,22,01,15,12.60
2016,06,22,01,16,12.60
2016,06,22,01,17,12.60
2016,06,22,01,18,12.50
2016,06,22,01,19,12.50
2016,06,22,01,20,12.50
2016,06,22,01,21,12.50
2016,06,22,01,22,12.40
2016,06,22,01,23,12.40
2016,06,22,01,24,12.30
2016,06,22,01,25,12.30
2016,06,22,01,26,12.20
2016,06,22,01,27,12.20
2016,06,22,01,28,12.10
2016,06,22,01,29,12.10
2016,06,22,01,30,12.00
2016,06,22,01,31,12.00
2016,06,22,01,32,12.00
2016,06,22,01,33,11.90
2016,06,22,01,34,11.90
2016,06,22,01,35,11.90
2016,06,22,01,36,11.90
2016,06,22,01,37,11.90
2016,06,22,01,38,11.80
2016,06,22,01,39,11.80
2016,06,22,01,40,11.80
2016,06,22,01,41,11.80
2016,06,22,01,42,11.80
2016,06,22,01,43,11.80
2016,06,22,01,44,11.80
2016,06,22,01,45,11.80
2016,06,22,01,46,11.80
2016,06,22,01,47,11.80
2016,06,22,01,48,11.80
2016,06,22,01,49,11.80
2016,06,22,01,50,11.80
2016,06,22,01,51,11.80
2016,06,22,01,52,11.80
2016,06,22,01,53,11.80
2016,06,22,01,54,11.80
2016,06,22,01,55,11.80
2016,06,22,01,56,11.80
2016,06,22,01,57,11.80
2016,06,22,01,58,11.80
2016,06,22,01,59,11.80
2016,06,22,02,00,11.90
2016,06,22,02,01,11.90
2016,06,22,02,02,11.90
2016,06,22,02,03,11.90
2016,06,22,02,04,11.90
2016,06,22,02,05,11.90
2016,06,22,02,06,11.90
2016,06,22,02,07,11.90
2016,06,22,02,08,11.90
2016,06,22,02,09,11.90
2016,06,22,02,10,11.80
2016,06,22,02,11,11.80
2016,06,22,02,12,11.80
2016,06,22,02,13,11.80
2016,06,22,02,14,11.80
2016,06,22,02,15,11.80
2016,06,22,02,16,11.80
2016,06,22,02,17,11.80
2016,06,22,02,18,11.80
2016,06,22,02,19,11.70
2016,06,22,02,20,11.70
2016,06,22,02,21,11.70
2016,06,22,02,22,11.60
2016,06,22,02,23,11.60
2016,06,22,02,24,11.60
2016,06,22,02,25,11.60
2016,06,22,02,26,11.60
2016,06,22,02,27,11.60
2016,06,22,02,28,11.50
2016,06,22,02,29,11.40
2016,06,22,02,30,11.40
2016,06,22,02,31,11.40
2016,06,22,02,32,11.40
2016,06,22,02,33,11.40
2016,06,22,02,34,11.40
2016,06,22,02,35,11.40
2016,06,22,02,36,11.40
2016,06,22,02,37,11.40
2016,06,22,02,38,11.40
2016,06,22,02,39,11.40
2016,06,22,02,40,11.40
2016,06,22,02,41,11.40
2016,06,22,02,42,11.40
2016,06,22,02,43,11.40
2016,06,22,02,44,11.40
2016,06,22,02,45,11.40
2016,06,22,02,46,11.40
2016,06,22,02,47,11.40
2016,06,22,02,48,11.40
2016,06,22,02,49,11.40
2016,06,22,02,50,11.40
2016,06,22,02,51,11.40
2016,06,22,02,52,11.40
2016,06,22,02,53,11.40
2016,06,22,02,54,11.40
2016,06,22,02,55,11.40
2016,06,22,02,56,11.50
2016,06,22,02,57,11.60
2016,06,22,02,58,11.60
2016,06,22,02,59,11.60
2016,06,22,03,00,11.60
2016,06,22,03,01,11.60
2016,06,22,03,02,11.60
2016,06,22,03,03,11.60
2016,06,22,03,04,11.60
2016,06,22,03,05,11.60
2016,06,22,03,06,11.60
2016,06,22,03,07,11.60
2016,06,22,03,08,11.60
2016,06,22,03,09,11.60
2016,06,22,03,10,11.60
2016,06,22,03,11,11.60
2016,06,22,03,12,11.60
2016,06,22,03,13,11.60
2016,06,22,03,14,11.60
2016,06,22,03,15,11.60
2016,06,22,03,16,11.60
2016,06,22,03,17,11.60
2016,06,22,03,18,11.60
2016,06,22,03,19,11.60
2016,06,22,03,20,11.60
2016,06,22,03,21,11.60
2016,06,22,03,22,11.60
2016,06,22,03,23,11.60
2016,06,22,03,24,11.60
2016,06,22,03,25,11.60
2016,06,22,03,26,11.60
2016,06,22,03,27,11.60
2016,06,22,03,28,11.60
2016,06,22,03,29,11.60
2016,06,22,03,30,11.60
2016,06,22,03,31,11.60
2016,06,22,03,32,11.60
2016,06,22,03,33,11.60
2016,06,22,03,34,11.60
2016,06,22,03,35,11.60
2016,06,22,03,36,11.60
2016,06,22,03,37,11.60
2016,06,22,03,38,11.60
2016,06,22,03,39,11.60
2016,06,22,03,40,11.60
2016,06,22,03,41,11.60
2016,06,22,03,42,11.60
2016,06,22,03,43,11.50
2016,06,22,03,44,11.40
2016,06,22,03,45,11.40
2016,06,22,03,46,11.40
2016,06,22,03,47,11.40
2016,06,22,03,48,11.40
2016,06,22,03,49,11.40
2016,06,22,03,50,11.30
2016,06,22,03,51,11.30
2016,06,22,03,52,11.30
2016,06,22,03,53,11.30
2016,06,22,03,54,11.30
2016,06,22,03,55,11.30
2016,06,22,03,56,11.20
2016,06,22,03,57,11.20
2016,06,22,03,58,11.20
2016,06,22,03,59,11.20
2016,06,22,04,00,11.20
2016,06,22,04,01,11.20
2016,06,22,04,02,11.20
2016,06,22,04,03,11.20
2016,06,22,04,04,11.20
2016,06,22,04,05,11.20
2016,06,22,04,06,11.20
2016,06,22,04,07,11.20
2016,06,22,04,08,11.20
2016,06,22,04,09,11.20
2016,06,22,04,10,11.20
2016,06,22,04,11,11.20
2016,06,22,04,12,11.20
2016,06,22,04,13,11.20
2016,06,22,04,14,11.20
2016,06,22,04,15,11.20
2016,06,22,04,16,11.20
2016,06,22,04,17,11.20
2016,06,22,04,18,11.20
2016,06,22,04,19,11.20
2016,06,22,04,20,11.20
2016,06,22,04,21,11.20
2016,06,22,04,22,11.20
2016,06,22,04,23,11.20
2016,06,22,04,24,11.20
2016,06,22,04,25,11.20
2016,06,22,04,26,11.20
2016,06,22,04,27,11.20
2016,06,22,04,28,11.20
2016,06,22,04,29,11.20
2016,06,22,04,30,11.20
2016,06,22,04,31,11.20
2016,06,22,04,32,11.20
2016,06,22,04,33,11.20
2016,06,22,04,34,11.20
2016,06,22,04,35,11.20
2016,06,22,04,36,11.20
2016,06,22,04,37,11.20
2016,06,22,04,38,11.20
2016,06,22,04,39,11.10
2016,06,22,04,40,11.10
2016,06,22,04,41,11.10
2016,06,22,04,42,11.10
2016,06,22,04,43,11.10
2016,06,22,04,44,11.10
2016,06,22,04,45,11.10
2016,06,22,04,46,11.10
2016,06,22,04,47,11.10
2016,06,22,04,48,11.10
2016,06,22,04,49,11.10
2016,06,22,04,50,11.10
2016,06,22,04,51,11.10
2016,06,22,04,52,11.10
2016,06,22,04,53,11.10
2016,06,22,04,54,11.10
2016,06,22,04,55,11.10
2016,06,22,04,56,11.10
2016,06,22,04,57,11.10
2016,06,22,04,58,11.10
2016,06,22,04,59,11.10
2016,06,22,05,00,11.10
2016,06,22,05,01,11.10
2016,06,22,05,02,11.10
2016,06,22,05,03,11.10
2016,06,22,05,04,11.10
2016,06,22,05,05,11.10
2016,06,22,05,06,11.00
2016,06,22,05,07,10.90
2016,06,22,05,08,10.90
2016,06,22,05,09,10.90
2016,06,22,05,10,10.90
2016,06,22,05,11,10.90
2016,06,22,05,12,10.90
2016,06,22,05,13,10.90
2016,06,22,05,14,10.90
2016,06,22,05,15,10.90
2016,06,22,05,16,10.90
2016,06,22,05,17,10.90
2016,06,22,05,18,10.90
2016,06,22,05,19,10.90
2016,06,22,05,20,10.80
2016,06,22,05,21,10.80
2016,06,22,05,22,10.80
2016,06,22,05,23,10.80
2016,06,22,05,24,10.80
2016,06,22,05,25,10.80
2016,06,22,05,26,10.70
2016,06,22,05,27,10.70
2016,06,22,05,28,10.70
2016,06,22,05,29,10.70
2016,06,22,05,30,10.70
2016,06,22,05,31,10.60
2016,06,22,05,32,10.60
2016,06,22,05,33,10.60
2016,06,22,05,34,10.60
2016,06,22,05,35,10.60
2016,06,22,05,36,10.60
2016,06,22,05,37,10.60
2016,06,22,05,38,10.50
2016,06,22,05,39,10.40
2016,06,22,05,40,10.40
2016,06,22,05,41,10.40
2016,06,22,05,42,10.40
2016,06,22,05,43,10.40
2016,06,22,05,44,10.40
2016,06,22,05,45,10.40
2016,06,22,05,46,10.40
2016,06,22,05,47,10.40
2016,06,22,05,48,10.40
2016,06,22,05,49,10.40
2016,06,22,05,50,10.40
2016,06,22,05,51,10.40
2016,06,22,05,52,10.40
2016,06,22,05,53,10.40
2016,06,22,05,54,10.40
2016,06,22,05,55,10.40
2016,06,22,05,56,10.40
2016,06,22,05,57,10.40
2016,06,22,05,58,10.40
2016,06,22,05,59,10.40
2016,06,22,06,00,10.40
2016,06,22,06,01,10.40
2016,06,22,06,02,10.40
2016,06,22,06,03,10.40
2016,06,22,06,04,10.40
2016,06,22,06,05,10.50
2016,06,22,06,06,10.60
2016,06,22,06,07,10.60
2016,06,22,06,08,10.60
2016,06,22,06,09,10.60
2016,06,22,06,10,10.60
2016,06,22,06,11,10.60
2016,06,22,06,12,10.70
2016,06,22,06,13,10.70
2016,06,22,06,14,10.70
2016,06,22,06,15,10.80
2016,06,22,06,16,10.80
2016,06,22,06,17,10.90
2016,06,22,06,18,10.90
2016,06,22,06,19,10.90
2016,06,22,06,20,11.00
2016,06,22,06,21,11.10
2016,06,22,06,22,11.10
2016,06,22,06,23,11.10
2016,06,22,06,24,11.10
2016,06,22,06,25,11.10
2016,06,22,06,26,11.20
2016,06,22,06,27,11.20
2016,06,22,06,28,11.20
2016,06,22,06,29,11.30
2016,06,22,06,30,11.30
2016,06,22,06,31,11.40
2016,06,22,06,32,11.40
2016,06,22,06,33,11.40
2016,06,22,06,34,11.40
2016,06,22,06,35,11.40
2016,06,22,06,36,11.40
2016,06,22,06,37,11.40
2016,06,22,06,38,11.40
2016,06,22,06,39,11.40
2016,06,22,06,40,11.40
2016,06,22,06,41,11.40
2016,06,22,06,42,11.40
2016,06,22,06,43,11.40
2016,06,22,06,44,11.40
2016,06,22,06,45,11.40
2016,06,22,06,46,11.40
2016,06,22,06,47,11.40
2016,06,22,06,48,11.40
2016,06,22,06,49,11.40
2016,06,22,06,50,11.40
2016,06,22,06,51,11.40
2016,06,22,06,52,11.50
2016,06,22,06,53,11.60
2016,06,22,06,54,11.60
2016,06,22,06,55,11.60
2016,06,22,06,56,11.60
2016,06,22,06,57,11.60
2016,06,22,06,58,11.60
2016,06,22,06,59,11.70
2016,06,22,07,00,11.70
2016,06,22,07,01,11.80
2016,06,22,07,02,11.80
2016,06,22,07,03,11.80
2016,06,22,07,04,11.90
2016,06,22,07,05,11.90
2016,06,22,07,06,12.00
2016,06,22,07,07,12.00
2016,06,22,07,08,12.10
2016,06,22,07,09,12.10
2016,06,22,07,10,12.20
2016,06,22,07,11,12.20
2016,06,22,07,12,12.20
2016,06,22,07,13,12.30
2016,06,22,07,14,12.30
2016,06,22,07,15,12.30
2016,06,22,07,16,12.30
2016,06,22,07,17,12.40
2016,06,22,07,18,12.40
2016,06,22,07,19,12.40
2016,06,22,07,20,12.50
2016,06,22,07,21,12.50
2016,06,22,07,22,12.50
2016,06,22,07,23,12.50
2016,06,22,07,24,12.60
2016,06,22,07,25,12.60
2016,06,22,07,26,12.70
2016,06,22,07,27,12.80
2016,06,22,07,28,12.80
2016,06,22,07,29,12.80
2016,06,22,07,30,12.90
2016,06,22,07,31,12.90
2016,06,22,07,32,13.00
2016,06,22,07,33,13.00
2016,06,22,07,34,13.00
2016,06,22,07,35,13.10
2016,06,22,07,36,13.10
2016,06,22,07,37,13.10
2016,06,22,07,38,13.10
2016,06,22,07,39,13.10
2016,06,22,07,40,13.20
2016,06,22,07,41,13.20
2016,06,22,07,42,13.20
2016,06,22,07,43,13.20
2016,06,22,07,44,13.30
2016,06,22,07,45,13.30
2016,06,22,07,46,13.30
2016,06,22,07,47,13.30
2016,06,22,07,48,13.30
2016,06,22,07,49,13.30
2016,06,22,07,50,13.30
2016,06,22,07,51,13.30
2016,06,22,07,52,13.30
2016,06,22,07,53,13.40
2016,06,22,07,54,13.40
2016,06,22,07,55,13.40
2016,06,22,07,56,13.50
2016,06,22,07,57,13.50
2016,06,22,07,58,13.60
2016,06,22,07,59,13.60
2016,06,22,08,00,13.60
2016,06,22,08,01,13.60
2016,06,22,08,02,13.70
2016,06,22,08,03,13.70
2016,06,22,08,04,13.70
2016,06,22,08,05,13.70
2016,06,22,08,06,13.70
2016,06,22,08,07,13.70
2016,06,22,08,08,13.80
2016,06,22,08,09,13.80
2016,06,22,08,10,13.80
2016,06,22,08,11,13.90
2016,06,22,08,12,13.90
2016,06,22,08,13,13.90
2016,06,22,08,14,14.00
2016,06,22,08,15,14.00
2016,06,22,08,16,14.10
2016,06,22,08,17,14.10
2016,06,22,08,18,14.20
2016,06,22,08,19,14.20
2016,06,22,08,20,14.40
2016,06,22,08,21,14.40
2016,06,22,08,22,14.50
2016,06,22,08,23,14.60
2016,06,22,08,24,14.60
2016,06,22,08,25,14.70
2016,06,22,08,26,14.80
2016,06,22,08,27,14.90
2016,06,22,08,28,15.00
2016,06,22,08,29,15.10
2016,06,22,08,30,15.20
2016,06,22,08,31,15.30
2016,06,22,08,32,15.30
2016,06,22,08,33,15.30
2016,06,22,08,34,15.40
2016,06,22,08,35,15.50
2016,06,22,08,36,15.50
2016,06,22,08,37,15.60
2016,06,22,08,38,15.70
2016,06,22,08,39,15.80
2016,06,22,08,40,15.80
2016,06,22,08,41,15.80
2016,06,22,08,42,15.90
2016,06,22,08,43,16.00
2016,06,22,08,44,16.10
2016,06,22,08,45,16.00
2016,06,22,08,46,15.90
2016,06,22,08,47,15.90
2016,06,22,08,48,15.90
2016,06,22,08,49,15.90
2016,06,22,08,50,15.90
2016,06,22,08,51,16.00
2016,06,22,08,52,16.10
2016,06,22,08,53,16.10
2016,06,22,08,54,16.10
2016,06,22,08,55,16.10
2016,06,22,08,56,16.20
2016,06,22,08,57,16.30
2016,06,22,08,58,16.30
2016,06,22,08,59,16.40
2016,06,22,09,00,16.40
2016,06,22,09,01,16.40
2016,06,22,09,02,16.50
2016,06,22,09,03,16.60
2016,06,22,09,04,16.60
2016,06,22,09,05,16.60
2016,06,22,09,06,16.70
2016,06,22,09,07,16.70
2016,06,22,09,08,16.70
2016,06,22,09,09,16.70
2016,06,22,09,10,16.70
2016,06,22,09,11,16.70
2016,06,22,09,12,16.70
2016,06,22,09,13,16.70
2016,06,22,09,14,16.70
2016,06,22,09,15,16.70
2016,06,22,09,16,16.70
2016,06,22,09,17,16.60
2016,06,22,09,18,16.60
2016,06,22,09,19,16.60
2016,06,22,09,20,16.60
2016,06,22,09,21,16.50
2016,06,22,09,22,16.40
2016,06,22,09,23,16.30
2016,06,22,09,24,16.20
2016,06,22,09,25,16.10
2016,06,22,09,26,16.00
2016,06,22,09,27,15.90
2016,06,22,09,28,15.80
2016,06,22,09,29,15.80
2016,06,22,09,30,15.70
2016,06,22,09,31,15.60
2016,06,22,09,32,15.50
2016,06,22,09,33,15.50
2016,06,22,09,34,15.40
2016,06,22,09,35,15.30
2016,06,22,09,36,15.30
2016,06,22,09,37,15.30
2016,06,22,09,38,15.30
2016,06,22,09,39,15.30
2016,06,22,09,40,15.20
2016,06,22,09,41,15.20
2016,06,22,09,42,15.10
2016,06,22,09,43,15.10
2016,06,22,09,44,15.10
2016,06,22,09,45,15.10
2016,06,22,09,46,15.10
2016,06,22,09,47,15.10
2016,06,22,09,48,15.10
2016,06,22,09,49,15.10
2016,06,22,09,50,15.20
2016,06,22,09,51,15.20
2016,06,22,09,52,15.20
2016,06,22,09,53,15.20
2016,06,22,09,54,15.20
2016,06,22,09,55,15.20
2016,06,22,09,56,15.30
2016,06,22,09,57,15.30
2016,06,22,09,58,15.30
2016,06,22,09,59,15.40
2016,06,22,10,00,15.40
2016,06,22,10,01,15.40
2016,06,22,10,02,15.50
2016,06,22,10,03,15.50
2016,06,22,10,04,15.60
2016,06,22,10,05,15.70
2016,06,22,10,06,15.80
2016,06,22,10,07,15.90
2016,06,22,10,08,16.00
2016,06,22,10,09,16.10
2016,06,22,10,10,16.20
2016,06,22,10,11,16.20
2016,06,22,10,12,16.30
2016,06,22,10,13,16.40
2016,06,22,10,14,16.60
2016,06,22,10,15,16.70
2016,06,22,10,16,16.80
2016,06,22,10,17,16.90
2016,06,22,10,18,16.90
2016,06,22,10,19,17.00
2016,06,22,10,20,17.10
2016,06,22,10,21,17.10
2016,06,22,10,22,17.20
2016,06,22,10,23,17.30
2016,06,22,10,24,17.30
2016,06,22,10,25,17.30
2016,06,22,10,26,17.30
2016,06,22,10,27,17.30
2016,06,22,10,28,17.40
2016,06,22,10,29,17.50
2016,06,22,10,30,17.50
2016,06,22,10,31,17.60
2016,06,22,10,32,17.70
2016,06,22,10,33,17.70
2016,06,22,10,34,17.80
2016,06,22,10,35,17.90
2016,06,22,10,36,17.90
2016,06,22,10,37,17.90
2016,06,22,10,38,18.00
2016,06,22,10,39,18.10
2016,06,22,10,40,18.10
2016,06,22,10,41,18.20
2016,06,22,10,42,18.20
2016,06,22,10,43,18.20
2016,06,22,10,44,18.30
2016,06,22,10,45,18.30
2016,06,22,10,46,18.40
2016,06,22,10,47,18.40
2016,06,22,10,48,18.40
2016,06,22,10,49,18.50
2016,06,22,10,50,18.40
2016,06,22,10,51,18.20
2016,06,22,10,52,18.20
2016,06,22,10,53,18.20
2016,06,22,10,54,18.20
2016,06,22,10,55,18.00
2016,06,22,10,56,17.70
2016,06,22,10,57,17.40
2016,06,22,10,58,17.30
2016,06,22,10,59,17.20
2016,06,22,11,00,17.10
2016,06,22,11,01,17.00
2016,06,22,11,02,16.90
2016,06,22,11,03,16.90
2016,06,22,11,04,16.80
2016,06,22,11,05,16.70
2016,06,22,11,06,16.70
2016,06,22,11,07,16.70
2016,06,22,11,08,16.80
2016,06,22,11,09,16.80
2016,06,22,11,10,16.80
2016,06,22,11,11,16.80
2016,06,22,11,12,16.80
2016,06,22,11,13,16.80
2016,06,22,11,14,16.90
2016,06,22,11,15,17.10
2016,06,22,11,16,17.20
2016,06,22,11,17,17.20
2016,06,22,11,18,17.30
2016,06,22,11,19,17.30
2016,06,22,11,20,17.40
2016,06,22,11,21,17.40
2016,06,22,11,22,17.50
2016,06,22,11,23,17.70
2016,06,22,11,24,17.80
2016,06,22,11,25,17.80
2016,06,22,11,26,17.90
2016,06,22,11,27,17.90
2016,06,22,11,28,17.90
2016,06,22,11,29,17.90
2016,06,22,11,30,17.90
2016,06,22,11,31,17.90
2016,06,22,11,32,18.00
2016,06,22,11,33,18.10
2016,06,22,11,34,18.20
2016,06,22,11,35,18.30
2016,06,22,11,36,18.40
2016,06,22,11,37,18.50
2016,06,22,11,38,18.50
2016,06,22,11,39,18.50
2016,06,22,11,40,18.50
2016,06,22,11,41,18.50
2016,06,22,11,42,18.60
2016,06,22,11,43,18.60
2016,06,22,11,44,18.60
2016,06,22,11,45,18.60
2016,06,22,11,46,18.60
2016,06,22,11,47,18.60
2016,06,22,11,48,18.60
2016,06,22,11,49,18.70
2016,06,22,11,50,18.70
2016,06,22,11,51,18.70
2016,06,22,11,52,18.60
2016,06,22,11,53,18.70
2016,06,22,11,54,18.70
2016,06,22,11,55,18.70
2016,06,22,11,56,18.90
2016,06,22,11,57,18.90
2016,06,22,11,58,18.80
2016,06,22,11,59,18.80
2016,06,22,12,00,18.90
2016,06,22,12,01,18.90
2016,06,22,12,02,19.00
2016,06,22,12,03,19.00
2016,06,22,12,04,18.90
2016,06,22,12,05,19.00
2016,06,22,12,06,19.10
2016,06,22,12,07,19.10
2016,06,22,12,08,19.10
2016,06,22,12,09,19.20
2016,06,22,12,10,19.30
2016,06,22,12,11,19.40
2016,06,22,12,12,19.40
2016,06,22,12,13,19.50
2016,06,22,12,14,19.60
2016,06,22,12,15,19.70
2016,06,22,12,16,19.70
2016,06,22,12,17,19.70
2016,06,22,12,18,19.70
2016,06,22,12,19,19.60
2016,06,22,12,20,19.60
2016,06,22,12,21,19.60
2016,06,22,12,22,19.80
2016,06,22,12,23,19.80
2016,06,22,12,24,19.80
2016,06,22,12,25,19.70
2016,06,22,12,26,19.80
2016,06,22,12,27,19.80
2016,06,22,12,28,19.70
2016,06,22,12,29,19.60
2016,06,22,12,30,19.50
2016,06,22,12,31,19.50
2016,06,22,12,32,19.40
2016,06,22,12,33,19.40
2016,06,22,12,34,19.50
2016,06,22,12,35,19.70
2016,06,22,12,36,19.70
2016,06,22,12,37,19.70
2016,06,22,12,38,19.60
2016,06,22,12,39,19.70
2016,06,22,12,40,19.80
2016,06,22,12,41,19.80
2016,06,22,12,42,19.90
2016,06,22,12,43,20.00
2016,06,22,12,44,20.10
2016,06,22,12,45,19.90
2016,06,22,12,46,19.90
2016,06,22,12,47,19.90
2016,06,22,12,48,19.80
2016,06,22,12,49,19.60
2016,06,22,12,50,19.50
2016,06,22,12,51,19.40
2016,06,22,12,52,19.40
2016,06,22,12,53,19.50
2016,06,22,12,54,19.70
2016,06,22,12,55,19.80
2016,06,22,12,56,19.90
2016,06,22,12,57,20.00
2016,06,22,12,58,20.10
2016,06,22,12,59,20.20
2016,06,22,13,00,20.20
2016,06,22,13,01,20.20
2016,06,22,13,02,20.20
2016,06,22,13,03,20.10
2016,06,22,13,04,20.00
2016,06,22,13,05,19.90
2016,06,22,13,06,20.00
2016,06,22,13,07,20.10
2016,06,22,13,08,20.10
2016,06,22,13,09,20.20
2016,06,22,13,10,20.30
2016,06,22,13,11,20.30
2016,06,22,13,12,20.40
2016,06,22,13,13,20.30
2016,06,22,13,14,20.20
2016,06,22,13,15,20.00
2016,06,22,13,16,19.90
2016,06,22,13,17,19.90
2016,06,22,13,18,19.90
2016,06,22,13,19,19.90
2016,06,22,13,20,19.90
2016,06,22,13,21,19.90
2016,06,22,13,22,20.10
2016,06,22,13,23,20.10
2016,06,22,13,24,20.20
2016,06,22,13,25,20.20
2016,06,22,13,26,20.20
2016,06,22,13,27,20.30
2016,06,22,13,28,20.50
2016,06,22,13,29,20.60
2016,06,22,13,30,20.70
2016,06,22,13,31,20.70
2016,06,22,13,32,20.70
2016,06,22,13,33,20.70
2016,06,22,13,34,20.60
2016,06,22,13,35,20.60
2016,06,22,13,36,20.60
2016,06,22,13,37,20.60
2016,06,22,13,38,20.70
2016,06,22,13,39,20.80
2016,06,22,13,40,20.80
2016,06,22,13,41,20.80
2016,06,22,13,42,20.90
2016,06,22,13,43,21.00
2016,06,22,13,44,21.00
2016,06,22,13,45,21.00
2016,06,22,13,46,21.00
2016,06,22,13,47,20.80
2016,06,22,13,48,20.70
2016,06,22,13,49,20.60
2016,06,22,13,50,20.60
2016,06,22,13,51,20.60
2016,06,22,13,52,20.50
2016,06,22,13,53,20.50
2016,06,22,13,54,20.60
2016,06,22,13,55,20.60
2016,06,22,13,56,20.60
2016,06,22,13,57,20.70
2016,06,22,13,58,20.80
2016,06,22,13,59,20.90
2016,06,22,14,00,21.00
2016,06,22,14,01,21.10
2016,06,22,14,02,21.10
2016,06,22,14,03,21.20
2016,06,22,14,04,21.30
2016,06,22,14,05,21.30
2016,06,22,14,06,21.40
2016,06,22,14,07,21.40
2016,06,22,14,08,21.50
2016,06,22,14,09,21.60
2016,06,22,14,10,21.60
2016,06,22,14,11,21.70
2016,06,22,14,12,21.90
2016,06,22,14,13,22.00
2016,06,22,14,14,22.10
2016,06,22,14,15,22.20
2016,06,22,14,16,22.20
2016,06,22,14,17,22.20
2016,06,22,14,18,22.20
2016,06,22,14,19,22.30
2016,06,22,14,20,22.30
2016,06,22,14,21,22.30
2016,06,22,14,22,22.20
2016,06,22,14,23,22.10
2016,06,22,14,24,22.20
2016,06,22,14,25,22.30
2016,06,22,14,26,22.40
2016,06,22,14,27,22.40
2016,06,22,14,28,22.30
2016,06,22,14,29,22.20
2016,06,22,14,30,22.10
2016,06,22,14,31,22.00
2016,06,22,14,32,21.80
2016,06,22,14,33,21.70
2016,06,22,14,34,21.70
2016,06,22,14,35,21.70
2016,06,22,14,36,21.60
2016,06,22,14,37,21.50
2016,06,22,14,38,21.40
2016,06,22,14,39,21.30
2016,06,22,14,40,21.30
2016,06,22,14,41,21.30
2016,06,22,14,42,21.20
2016,06,22,14,43,21.20
2016,06,22,14,44,21.20
2016,06,22,14,45,21.30
2016,06,22,14,46,21.40
2016,06,22,14,47,21.40
2016,06,22,14,48,21.40
2016,06,22,14,49,21.40
2016,06,22,14,50,21.40
2016,06,22,14,51,21.40
2016,06,22,14,52,21.40
2016,06,22,14,53,21.50
2016,06,22,14,54,21.60
2016,06,22,14,55,21.60
2016,06,22,14,56,21.50
2016,06,22,14,57,21.40
2016,06,22,14,58,21.40
2016,06,22,14,59,21.40
2016,06,22,15,00,21.30
2016,06,22,15,01,21.30
2016,06,22,15,02,21.30
2016,06,22,15,03,21.30
2016,06,22,15,04,21.20
2016,06,22,15,05,21.10
2016,06,22,15,06,21.00
2016,06,22,15,07,21.00
2016,06,22,15,08,21.00
2016,06,22,15,09,21.00
2016,06,22,15,10,21.00
2016,06,22,15,11,21.00
2016,06,22,15,12,21.10
2016,06,22,15,13,21.10
2016,06,22,15,14,21.20
2016,06,22,15,15,21.20
2016,06,22,15,16,21.20
2016,06,22,15,17,21.20
2016,06,22,15,18,21.30
2016,06,22,15,19,21.30
2016,06,22,15,20,21.30
2016,06,22,15,21,21.20
2016,06,22,15,22,21.30
2016,06,22,15,23,21.30
2016,06,22,15,24,21.30
2016,06,22,15,25,21.30
2016,06,22,15,26,21.30
2016,06,22,15,27,21.30
2016,06,22,15,28,21.30
2016,06,22,15,29,21.10
2016,06,22,15,30,21.00
2016,06,22,15,31,21.00
2016,06,22,15,32,21.00
2016,06,22,15,33,21.10
2016,06,22,15,34,21.10
2016,06,22,15,35,21.20
2016,06,22,15,36,21.30
2016,06,22,15,37,21.30
2016,06,22,15,38,21.30
2016,06,22,15,39,21.40
2016,06,22,15,40,21.40
2016,06,22,15,41,21.40
2016,06,22,15,42,21.40
2016,06,22,15,43,21.30
2016,06,22,15,44,21.30
2016,06,22,15,45,21.30
2016,06,22,15,46,21.20
2016,06,22,15,47,21.10
2016,06,22,15,48,21.10
2016,06,22,15,49,21.10
2016,06,22,15,50,21.00
2016,06,22,15,51,21.10
2016,06,22,15,52,21.10
2016,06,22,15,53,21.20
2016,06,22,15,54,21.30
2016,06,22,15,55,21.30
2016,06,22,15,56,21.30
2016,06,22,15,57,21.30
2016,06,22,15,58,21.20
2016,06,22,15,59,21.20
2016,06,22,16,00,21.10
2016,06,22,16,01,21.00
2016,06,22,16,02,21.00
2016,06,22,16,03,20.90
2016,06,22,16,04,20.90
2016,06,22,16,05,20.90
2016,06,22,16,06,20.80
2016,06,22,16,07,20.80
2016,06,22,16,08,20.80
2016,06,22,16,09,20.80
2016,06,22,16,10,20.80
2016,06,22,16,11,20.80
2016,06,22,16,12,20.70
2016,06,22,16,13,20.70
2016,06,22,16,14,20.60
2016,06,22,16,15,20.50
2016,06,22,16,16,20.50
2016,06,22,16,17,20.50
2016,06,22,16,18,20.50
2016,06,22,16,19,20.50
2016,06,22,16,20,20.40
2016,06,22,16,21,20.50
2016,06,22,16,22,20.50
2016,06,22,16,23,20.50
2016,06,22,16,24,20.40
2016,06,22,16,25,20.40
2016,06,22,16,26,20.30
2016,06,22,16,27,20.30
2016,06,22,16,28,20.40
2016,06,22,16,29,20.50
2016,06,22,16,30,20.50
2016,06,22,16,31,20.50
2016,06,22,16,32,20.50
2016,06,22,16,33,20.50
2016,06,22,16,34,20.60
2016,06,22,16,35,20.60
2016,06,22,16,36,20.60
2016,06,22,16,37,20.50
2016,06,22,16,38,20.50
2016,06,22,16,39,20.40
2016,06,22,16,40,20.40
2016,06,22,16,41,20.40
2016,06,22,16,42,20.40
2016,06,22,16,43,20.40
2016,06,22,16,44,20.30
2016,06,22,16,45,20.30
2016,06,22,16,46,20.30
2016,06,22,16,47,20.30
2016,06,22,16,48,20.30
2016,06,22,16,49,20.30
2016,06,22,16,50,20.20
2016,06,22,16,51,20.20
2016,06,22,16,52,20.20
2016,06,22,16,53,20.20
2016,06,22,16,54,20.20
2016,06,22,16,55,20.20
2016,06,22,16,56,20.10
2016,06,22,16,57,20.10
2016,06,22,16,58,20.10
2016,06,22,16,59,19.90
2016,06,22,17,00,19.90
2016,06,22,17,01,19.90
2016,06,22,17,02,19.90
2016,06,22,17,03,19.90
2016,06,22,17,04,19.90
2016,06,22,17,05,19.90
2016,06,22,17,06,19.90
2016,06,22,17,07,19.90
2016,06,22,17,08,19.90
2016,06,22,17,09,19.90
2016,06,22,17,10,19.90
2016,06,22,17,11,19.90
2016,06,22,17,12,19.90
2016,06,22,17,13,19.90
2016,06,22,17,14,19.80
2016,06,22,17,15,19.70
2016,06,22,17,16,19.70
2016,06,22,17,17,19.70
2016,06,22,17,18,19.70
2016,06,22,17,19,19.70